Location: Unspecified
(0.0000°N, 0.0000°E)
Time: 02:24:34
(UTC+02:00)

Vanguard 1 - Visible Passes

Search period start: 23 August 2017 00:00
Search period end: 02 September 2017 00:00
Orbit: 653 x 3831 km, 34.2° (Epoch: 22 August)

Date Brightness Start Highest point End Pass type
(mag) Time Alt. Az. Time Alt. Az. Time Alt. Az.
23 Aug 13.4 00:50:48 10° NW 01:29:58 - ESE 00:51:27 12° NNW visible
23 Aug 13.5 03:42:41 35° SE 03:42:41 35° SE 03:53:15 10° SE visible
23 Aug 13.3 05:55:25 30° SW 05:59:19 31° SSW 06:17:28 10° SSE visible
23 Aug 12.9 22:54:10 10° N 22:58:10 18° NNE 22:58:10 18° NNE visible
24 Aug13.601:49:53ESE01:49:53ESE01:10:51NWvisible
24 Aug 13.4 04:02:36 36° SSE 04:02:36 36° SSE 04:14:38 10° SE visible
24 Aug 13.5 06:15:19 22° SW 06:22:30 25° SSW 06:38:48 10° SSE visible
24 Aug 12.8 23:14:01 10° NNW 23:17:38 21° N 23:17:38 21° N visible
25 Aug13.902:09:42SE02:09:42SE01:30:19NWvisible
25 Aug 13.4 04:22:25 36° S 04:22:25 36° S 04:35:55 10° SE visible
25 Aug 13.7 06:35:07 16° SW 06:46:03 22° SSW 07:00:26 10° SSE visible
25 Aug 12.8 23:34:14 10° NNW 23:37:09 22° N 23:37:09 22° N visible
26 Aug 14.1 02:29:26 14° SE 02:29:26 14° SE 02:31:18 10° SE visible
26 Aug 13.4 04:42:09 34° S 04:42:09 34° S 04:57:14 10° SSE visible
26 Aug 13.8 06:55:22 10° SW 07:09:53 19° S 07:22:32 10° SSE visible
26 Aug 12.9 23:54:41 10° NNW 23:56:43 19° NNW 23:56:43 19° NNW visible
27 Aug 14.0 02:49:06 18° SE 02:49:06 18° SE 02:52:55 10° SE visible
27 Aug 13.5 05:01:48 30° SSW 05:01:48 30° SSW 05:18:39 10° SSE visible
27 Aug 13.9 07:20:17 10° SW 07:33:52 18° S 07:45:16 10° SSE visible
27 Aug 12.6 21:59:03 10° N 22:03:38 16° NE 22:03:38 16° NE visible
28 Aug 13.1 00:15:22 10° NW 00:16:20 14° NW 00:16:20 14° NW visible
28 Aug 13.9 03:08:42 21° SSE 03:08:42 21° SSE 03:14:24 10° SE visible
28 Aug 13.5 05:21:24 25° SSW 05:23:03 25° SSW 05:40:19 10° SSE visible
28 Aug 12.4 22:18:31 10° N 22:23:19 23° NNE 22:23:19 23° NNE visible
29 Aug 13.8 03:28:15 23° SSE 03:28:15 23° SSE 03:35:49 10° SE visible
29 Aug 13.7 05:40:57 20° SSW 05:46:48 22° SSW 06:02:24 10° SSE visible
29 Aug 12.1 22:38:33 10° NNW 22:43:02 29° N 22:43:02 29° N visible
30 Aug13.701:35:05SE01:35:05SE00:55:44WNWvisible
30 Aug 13.7 03:47:45 25° SSE 03:47:45 25° SSE 03:57:17 10° SE visible
30 Aug 13.8 06:00:27 15° SW 06:10:51 20° S 06:25:04 10° SE visible
30 Aug 12.1 22:58:55 10° NNW 23:02:49 32° NNW 23:02:49 32° NNW visible
31 Aug 13.7 04:07:14 25° S 04:07:14 25° S 04:18:56 10° SSE visible
31 Aug 13.9 06:20:09 10° SW 06:35:01 19° S 06:48:23 10° SE visible
31 Aug 12.4 21:04:31 10° NNE 21:07:26 12° NE 21:09:56 11° ENE visible
31 Aug 12.3 23:19:33 10° NW 23:22:39 29° NW 23:22:39 29° NW visible
01 Sep 13.7 04:26:41 23° S 04:26:41 23° S 04:40:55 10° SSE visible
01 Sep 13.9 06:43:43 10° SW 06:59:05 20° S 07:12:11 10° SE visible
01 Sep 12.1 21:23:15 10° N 21:28:31 20° NE 21:29:49 20° NE visible
